Volver al catálogo

NIMBUS 2 DEB

ActivoSSO
NORAD 40648·DEBRIS·🇺🇸 United States

Lanzado May 15, 1966 desde Vandenberg Space Force Base

Loading…

Próximos Pases (próximas 24 horas)

TLE

ActualizadoSource: Space-Track

Época: Sep 14, 2026, 08:45 UTC

1 40648U 66040BM  26257.36522761  .00001923  00000-0  30690-2 0  9997
2 40648 100.2032  90.4821 0039041 272.3931  87.2732 13.50269591555083

Sigue NIMBUS 2 DEB en tiempo real con AllMySat

Download on the App Store